Starlink 32833

operational
NORAD ID: 62873 Int'l Des: 2025-022 Owner: SPXS Country: US Constellation: starlink
LEOCIRCULAR

Über Starlink 32833

Beschreibung wird geladen...

Live-Position

3D-Globus wird geladen...

Nächste Überflüge

Höhenverlauf

Altitude vs Time

uPlot chart will show altitude changes over time

Zweizeiliger Elementsatz

1 62873U 25022V 25259.31468851 .00026284 00000-0 89617-3 0 9992
2 62873 53.1567 219.4923 0001046 85.0932 275.0188 15.30209525 35206
Epoch: 16. Sept. 2025 • Age: 20 hours

Aktueller Status

Höhe 492.0 km
Geschwindigkeit 7.62 km/s
Subsatellitenpunkt -47.64°S, 42.56°E
Startdatum 2. Feb. 2025
Alter 0.6 years
Typ internet

Technische Details

Klassifizierung Payload
Masse 730.00 kg
Trockenmasse 700.00 kg
Gesamtmasse 730.00 kg
Länge 0.30 m
Durchmesser 4.10 m
Spannweite 29.00 m
Form Box + pan
Hersteller SPXS
Bus-Typ Starlink V2M
Phasenstatus In Orbit
Besitzer/Staat SPXS/US

Große Konstellationen

Loading constellations...